Location: Gad�tanya
(48.0500°N, 20.8500°E)
Time: 02:42:34
(UTC+00:00)

COSMOS 2455 - Visible Passes

Search period start: 23 October 2020 00:00
Search period end: 02 November 2020 00:00
Orbit: 898 x 911 km, 67.1° (Epoch: 22 October)

Date Brightness Start Highest point End Pass type
(mag) Time Alt. Az. Time Alt. Az. Time Alt. Az.
23 Oct 5.0 16:02:04 10° WNW 16:05:54 17° NNW 16:09:44 10° NNE visible
23 Oct 5.0 17:52:07 10° NNW 17:54:33 12° N 17:56:44 10° NNE visible
23 Oct 5.1 19:38:13 10° NNW 19:39:52 16° N 19:39:52 16° N visible
24 Oct 5.0 16:06:54 10° NW 16:10:18 15° NNW 16:13:43 10° NNE visible
24 Oct 5.0 17:56:21 10° NNW 17:59:02 13° N 18:00:32 12° NNE visible
24 Oct 5.2 19:42:10 10° NNW 19:43:40 16° N 19:43:40 16° N visible
25 Oct 5.0 16:11:45 10° NW 16:14:46 14° NNW 16:17:46 10° NNE visible
25 Oct 4.9 18:00:28 10° NNW 18:03:30 14° NNE 18:04:21 14° NNE visible
25 Oct 5.2 19:46:06 10° NNW 19:47:28 16° NNW 19:47:28 16° NNW visible
26 Oct 5.0 16:16:34 10° NW 16:19:13 13° N 16:21:52 10° NNE visible
26 Oct 4.8 18:04:31 10° NNW 18:07:57 15° NNE 18:08:10 15° NNE visible
26 Oct 5.2 19:50:02 10° NNW 19:51:18 16° NNW 19:51:18 16° NNW visible
27 Oct 5.0 16:21:18 10° NNW 16:23:43 12° N 16:26:07 10° NNE visible
27 Oct 4.7 18:08:30 10° NNW 18:12:00 17° NNE 18:12:00 17° NNE visible
27 Oct 5.3 19:54:00 10° NNW 19:55:08 16° NNW 19:55:08 16° NNW visible
28 Oct 5.0 16:25:53 10° NNW 16:28:12 12° N 16:30:32 10° NNE visible
28 Oct 4.6 18:12:27 10° NNW 18:15:51 19° NNE 18:15:51 19° NNE visible
28 Oct 5.3 19:57:58 10° NNW 19:58:59 15° NNW 19:58:59 15° NNW visible
29 Oct 4.9 16:30:17 10° NNW 16:32:42 12° N 16:35:07 10° NNE visible
29 Oct 4.5 18:16:23 10° NNW 18:19:43 21° NNE 18:19:43 21° NNE visible
29 Oct 5.4 20:01:58 10° NNW 20:02:51 15° NNW 20:02:51 15° NNW visible
30 Oct 4.9 16:34:32 10° NNW 16:37:12 13° N 16:39:51 10° NE visible
30 Oct 4.4 18:20:20 10° NNW 18:23:37 23° N 18:23:37 23° N visible
30 Oct 5.4 20:05:59 10° NW 20:06:45 14° NW 20:06:45 14° NW visible
31 Oct 4.8 16:38:39 10° NNW 16:41:40 14° NNE 16:44:23 11° NE visible
31 Oct 4.3 18:24:16 10° NNW 18:27:32 25° N 18:27:32 25° N visible
31 Oct 5.5 20:10:03 10° NW 20:10:40 13° NW 20:10:40 13° NW visible
01 Nov 4.6 16:42:41 10° NNW 16:46:07 15° NNE 16:48:20 13° NE visible
01 Nov 4.3 18:28:13 10° NNW 18:31:29 28° N 18:31:29 28° N visible
01 Nov 5.6 20:14:10 10° NW 20:14:37 12° NW 20:14:37 12° NW visible
